Location: Newark
(48.1500°N, 2.9667°W)
Time: 03:27:07
(UTC+00:00)

Altair - Pass Details

Date: 31 January 2020
Orbit: 1502 x 1682 km, 47.2° (Epoch: 18 February)

Event Time Altitude Azimuth Distance (km) Brightness Sun altitude
Rises 15:37:18 0° 285° (WNW) 4,934 10.6 11.7°
Reaches altitude 10° 15:43:44 10° 256° (WSW) 3,919 11.0 10.9°
Maximum altitude 15:46:26 11° 239° (WSW) 3,793 11.9 10.6°
Drops below altitude 10° 15:49:08 10° 223° (SW) 3,886 12.7 10.3°
Sets 15:55:29 0° 193° (SSW) 4,823 11.1 9.5°
